GW6781 Weather Reports


time (UTC)temp
F
wind
direction
speed
knots
gust
knots
rain 1hr
in
rain 24hr
in
rain mn
in
humidity
%
barometer
mb
20260509024605 59 0 0.0 0.9 0.00 0.00 0.00 57 1013.6
20260509024058 59 0 0.0 0.0 0.00 0.00 0.00 57 1013.7
20260509023600 59 0 0.0 0.9 0.00 0.00 0.00 57 1013.7
20260509023056 59 0 0.0 0.9 0.00 0.00 0.00 57 1013.6
20260509022602 59 0 0.0 0.0 0.00 0.00 0.00 57 1013.5
20260509022059 59 0 0.0 0.9 0.00 0.00 0.00 57 1013.6
20260509021600 59 0 0.0 0.9 0.00 0.00 0.00 56 1013.6
20260509021059 59 0 0.0 0.9 0.00 0.00 0.00 57 1013.4
20260509020556 59 0 0.0 0.9 0.00 0.00 0.00 57 1013.5
20260509020110 59 0 0.0 0.9 0.00 0.00 0.00 57 1013.6
20260509015558 59 0 0.0 0.0 0.00 0.00 0.00 58 1013.5
20260509015055 59 0 0.0 0.0 0.00 0.00 0.00 58 1013.4
20260509014558 59 0 0.0 0.0 0.00 0.00 0.00 58 1013.5
20260509014102 59 0 0.0 0.0 0.00 0.00 0.00 58 1013.4
20260509013558 59 0 0.0 0.0 0.00 0.00 0.00 57 1013.3
20260509013100 59 0 0.0 0.9 0.00 0.00 0.00 57 1013.2
20260509012558 60 0 0.0 0.9 0.00 0.00 0.00 57 1013.2
20260509012058 60 0 0.0 0.9 0.00 0.00 0.00 57 1013.2
20260509011601 60 0 0.0 1.7 0.00 0.00 0.00 57 1013.2
20260509011102 60 0 0.0 1.7 0.00 0.00 0.00 57 1013.3
20260509010601 60 238 0.0 1.7 0.00 0.00 0.00 57 1013.1
20260509005556 61 0 0.0 0.0 0.00 0.00 0.00 55 1013.3
20260509005058 61 0 0.0 0.0 0.00 0.00 0.00 55 1013.2
20260509004557 61 0 0.0 0.0 0.00 0.00 0.00 55 1013.2
20260509004056 62 0 0.0 0.9 0.00 0.00 0.00 54 1013.1
20260509003556 62 0 0.0 0.9 0.00 0.00 0.00 54 1013.1
20260509003102 62 238 0.0 0.9 0.00 0.00 0.00 54 1013.1
20260509002558 63 0 0.0 0.9 0.00 0.00 0.00 54 1013.1
20260509002058 63 0 0.0 0.0 0.00 0.00 0.00 55 1013.1
20260509001557 63 0 0.0 0.9 0.00 0.00 0.00 55 1013.1
20260509001058 64 0 0.0 0.9 0.00 0.00 0.00 55 1013.0
20260509000558 64 0 0.0 0.9 0.00 0.00 0.00 54 1013.0
20260509000055 64 0 0.0 0.9 0.00 0.00 0.00 55 1013.1
20260508235557 65 0 0.0 1.7 0.00 0.00 0.00 54 1013.3
20260508235055 65 0 0.0 3.5 0.00 0.00 0.00 54 1013.2
20260508234604 65 0 0.0 3.5 0.00 0.00 0.00 55 1013.3
20260508234056 66 0 0.9 3.5 0.00 0.00 0.00 53 1013.2
20260508233558 66 0 0.0 2.6 0.00 0.00 0.00 54 1013.3
20260508233105 66 0 0.0 3.5 0.00 0.00 0.00 55 1013.1
20260508232558 66 227 0.9 3.5 0.00 0.00 0.00 54 1013.2
20260508232058 67 106 0.0 2.6 0.00 0.00 0.00 53 1013.0
20260508231600 67 0 0.0 3.5 0.00 0.00 0.00 52 1013.0
20260508231058 67 0 0.0 3.5 0.00 0.00 0.00 53 1013.0
20260508230559 67 0 0.9 3.5 0.00 0.00 0.00 52 1013.1
20260508230057 68 0 0.0 3.5 0.00 0.00 0.00 52 1013.1
20260508225558 68 234 0.0 3.5 0.00 0.00 0.00 52 1013.0
20260508225058 68 189 0.0 2.6 0.00 0.00 0.00 54 1013.0
20260508224558 68 0 0.0 2.6 0.00 0.00 0.00 51 1013.1
20260508224057 68 121 0.0 2.6 0.00 0.00 0.00 50 1013.2
20260508223557 69 0 0.0 5.2 0.00 0.00 0.00 52 1013.2
20260508223058 69 219 0.9 5.2 0.00 0.00 0.00 48 1013.2
20260508222559 69 159 0.9 4.3 0.00 0.00 0.00 49 1013.2
20260508222100 70 168 0.9 3.5 0.00 0.00 0.00 47 1013.3
20260508221558 70 221 0.9 4.3 0.00 0.00 0.00 47 1013.2
20260508221057 69 43 0.9 4.3 0.00 0.00 0.00 50 1013.1
20260508220602 70 0 0.9 4.3 0.00 0.00 0.00 47 1013.2
20260508220056 70 217 0.9 4.3 0.00 0.00 0.00 48 1013.1
20260508215558 70 163 0.9 3.5 0.00 0.00 0.00 48 1013.2
20260508215058 70 16 0.9 3.5 0.00 0.00 0.00 50 1013.2
20260508214559 69 192 0.9 3.5 0.00 0.00 0.00 47 1013.2
20260508214057 69 9 0.9 4.3 0.00 0.00 0.00 46 1013.3
20260508213557 69 182 0.9 6.1 0.00 0.00 0.00 46 1013.4
20260508213059 69 219 0.9 6.1 0.00 0.00 0.00 47 1013.3
20260508212558 69 200 0.9 7.0 0.00 0.00 0.00 50 1013.3
20260508212057 69 76 0.0 7.8 0.00 0.00 0.00 49 1013.2
20260508211557 69 342 3.5 7.8 0.00 0.00 0.00 48 1013.1
20260508211059 70 184 2.6 7.0 0.00 0.00 0.00 50 1013.1
20260508210559 70 223 0.9 3.5 0.00 0.00 0.00 48 1013.2
20260508210059 70 176 0.9 3.5 0.00 0.00 0.00 46 1013.3
20260508205557 70 322 0.0 5.2 0.00 0.00 0.00 48 1013.4
20260508205057 70 342 0.0 5.2 0.00 0.00 0.00 51 1013.4
20260508204557 69 60 0.9 3.5 0.00 0.00 0.00 47 1013.4
20260508204102 69 235 0.0 3.5 0.00 0.00 0.00 47 1013.4
20260508203558 68 196 1.7 6.1 0.00 0.00 0.00 47 1013.4
20260508203056 67 187 0.9 7.8 0.00 0.00 0.00 46 1013.4
20260508202601 68 184 4.3 7.8 0.00 0.00 0.00 47 1013.6
20260508202057 69 153 1.7 7.0 0.00 0.00 0.00 47 1013.5
20260508201558 69 138 1.7 7.0 0.00 0.00 0.00 47 1013.6
20260508201058 69 171 2.6 6.1 0.00 0.00 0.00 48 1013.8
20260508200557 68 212 0.9 5.2 0.00 0.00 0.00 49 1013.8
20260508200057 68 146 1.7 5.2 0.00 0.00 0.00 49 1013.9
20260508195558 68 170 0.9 5.2 0.00 0.00 0.00 45 1014.0
20260508195057 68 0 0.9 6.1 0.00 0.00 0.00 48 1014.3
20260508194607 68 171 2.6 6.1 0.00 0.00 0.00 48 1014.4
20260508194057 67 160 0.0 13.0 0.00 0.00 0.00 45 1014.5
20260508193558 67 30 4.3 13.0 0.00 0.00 0.00 46 1014.9
20260508193119 67 219 2.6 7.8 0.00 0.00 0.00 48 1014.9
20260508192557 67 113 1.7 7.8 0.00 0.00 0.00 51 1015.0
20260508192100 66 77 2.6 7.8 0.00 0.00 0.00 52 1015.0
20260508191607 66 30 1.7 4.3 0.00 0.00 0.00 48 1015.2
20260508191057 65 0 0.9 7.8 0.00 0.00 0.00 45 1015.2
20260508190557 65 84 0.9 7.8 0.00 0.00 0.00 47 1015.3
20260508190113 65 175 3.5 9.6 0.00 0.00 0.00 45 1015.3
20260508185556 65 198 5.2 9.6 0.00 0.00 0.00 45 1015.3
20260508185057 65 167 0.9 7.0 0.00 0.00 0.00 49 1015.2
20260508184608 65 162 4.3 7.0 0.00 0.00 0.00 50 1015.4
20260508184058 65 175 1.7 7.0 0.00 0.00 0.00 50 1015.6
20260508183557 65 170 1.7 7.0 0.00 0.00 0.00 45 1015.6
20260508183100 65 90 0.9 7.0 0.00 0.00 0.00 47 1015.5
20260508182559 65 0 2.6 7.0 0.00 0.00 0.00 49 1015.7
20260508182057 65 0 0.9 7.8 0.00 0.00 0.00 48 1015.8
20260508181604 64 140 3.5 7.8 0.00 0.00 0.00 44 1015.9
20260508181057 64 120 3.5 8.7 0.00 0.00 0.00 47 1015.8
20260508180600 64 157 1.7 8.7 0.00 0.00 0.00 49 1015.8
20260508175557 63 139 2.6 8.7 0.00 0.00 0.00 45 1015.9
20260508175058 63 124 2.6 8.7 0.00 0.00 0.00 48 1016.0
20260508174555 63 142 2.6 7.0 0.00 0.00 0.00 44 1016.0
20260508174058 63 149 2.6 7.0 0.00 0.00 0.00 49 1016.0
20260508173557 63 83 0.9 5.2 0.00 0.00 0.00 46 1016.0
20260508173058 63 175 2.6 5.2 0.00 0.00 0.00 41 1016.2
20260508172559 64 117 0.9 4.3 0.00 0.00 0.00 48 1016.3
20260508172059 64 327 1.7 4.3 0.00 0.00 0.00 43 1016.6
20260508171556 63 167 0.9 3.5 0.00 0.00 0.00 47 1016.6
20260508171057 63 352 1.7 3.5 0.00 0.00 0.00 49 1016.7
20260508170557 62 0 0.9 4.3 0.00 0.00 0.00 45 1016.6
20260508170059 62 30 0.9 5.2 0.00 0.00 0.00 43 1016.8
20260508165558 62 326 0.9 7.0 0.00 0.01 0.00 45 1017.0
20260508165057 61 0 2.6 7.0 0.00 0.01 0.00 46 1017.0
20260508164557 62 78 3.5 6.1 0.00 0.01 0.00 46 1017.3
20260508164057 61 79 2.6 6.1 0.00 0.01 0.00 47 1017.3
20260508163557 61 98 1.7 7.0 0.00 0.01 0.00 51 1017.4
20260508163106 61 96 0.9 7.0 0.00 0.01 0.00 49 1017.4
20260508162557 61 97 4.3 7.0 0.00 0.01 0.00 48 1017.4
20260508162057 61 78 1.7 8.7 0.00 0.01 0.00 52 1017.5
20260508161559 61 37 5.2 8.7 0.00 0.01 0.00 47 1017.5
20260508161059 61 0 0.9 7.8 0.00 0.01 0.00 52 1017.6
20260508160556 60 43 1.7 7.8 0.00 0.01 0.00 53 1017.6
20260508160058 61 99 3.5 7.8 0.00 0.01 0.00 59 1017.7
20260508155559 60 76 0.9 5.2 0.00 0.01 0.00 55 1017.7
20260508155059 60 140 2.6 8.7 0.00 0.01 0.00 54 1017.8
20260508154558 60 104 3.5 8.7 0.00 0.01 0.00 53 1018.0
20260508154057 60 25 2.6 7.8 0.00 0.01 0.00 53 1018.0
20260508153600 60 107 1.7 7.0 0.00 0.01 0.00 50 1018.0
20260508153108 59 96 2.6 7.0 0.00 0.01 0.00 60 1018.0
20260508152601 59 73 3.5 7.0 0.00 0.01 0.00 54 1018.2
20260508152057 59 57 2.6 7.0 0.00 0.01 0.00 52 1018.2
20260508151558 59 103 4.3 7.0 0.00 0.01 0.00 53 1018.2
20260508151057 59 61 2.6 7.8 0.00 0.01 0.00 54 1018.1
20260508150557 59 139 4.3 7.8 0.00 0.01 0.00 55 1018.2
20260508150059 59 101 2.6 7.0 0.00 0.01 0.00 60 1018.1
20260508145600 59 123 1.7 6.1 0.00 0.03 0.00 55 1018.0
20260508145057 58 107 2.6 7.8 0.00 0.03 0.00 52 1018.2
20260508144556 58 55 3.5 7.8 0.00 0.03 0.00 55 1018.2
20260508144057 59 92 3.5 7.8 0.00 0.03 0.00 56 1018.2
20260508143558 58 109 2.6 7.0 0.00 0.03 0.00 59 1018.1
20260508143116 58 58 1.7 6.1 0.00 0.03 0.00 54 1018.3
20260508142558 58 74 3.5 6.1 0.00 0.03 0.00 55 1018.2
20260508142058 58 133 2.6 6.1 0.00 0.03 0.00 58 1018.3
20260508141606 58 92 1.7 6.1 0.00 0.03 0.00 64 1018.4
20260508141058 58 52 1.7 5.2 0.00 0.03 0.00 68 1018.3
20260508140558 58 149 1.7 5.2 0.00 0.03 0.00 69 1018.4
20260508140119 58 81 0.9 2.6 0.00 0.03 0.00 72 1018.3
20260508135559 57 94 0.0 2.6 0.00 0.05 0.00 71 1018.3
20260508135057 56 94 0.9 2.6 0.00 0.05 0.00 71 1018.3
20260508134556 56 0 0.0 2.6 0.00 0.05 0.00 75 1018.4
20260508134057 55 104 0.9 3.5 0.00 0.05 0.00 76 1018.4
20260508133557 55 76 1.7 3.5 0.00 0.05 0.00 78 1018.3
20260508133103 55 96 0.9 3.5 0.00 0.05 0.00 81 1018.2
20260508132557 55 96 0.0 3.5 0.00 0.05 0.00 84 1018.3
20260508132057 54 96 1.7 5.2 0.00 0.05 0.00 83 1018.4
20260508131556 54 141 0.9 5.2 0.00 0.05 0.00 86 1018.1
20260508131058 54 97 0.9 5.2 0.00 0.05 0.00 85 1018.2
20260508130558 54 184 1.7 5.2 0.00 0.05 0.00 86 1018.3
20260508130055 53 0 0.9 3.5 0.00 0.05 0.00 87 1018.3
20260508125601 53 184 0.0 3.5 0.00 0.06 0.00 87 1018.2
20260508125057 53 178 0.9 2.6 0.00 0.06 0.00 86 1018.3
20260508124558 53 96 0.9 2.6 0.00 0.06 0.00 86 1018.4
20260508124057 52 96 0.9 2.6 0.00 0.06 0.00 85 1018.3
20260508123559 52 111 0.9 2.6 0.00 0.06 0.00 85 1018.4
20260508123059 52 0 0.9 2.6 0.00 0.06 0.00 84 1018.3
20260508122559 52 111 0.9 2.6 0.00 0.06 0.00 86 1018.3
20260508122058 51 111 0.9 2.6 0.00 0.06 0.00 86 1018.1
20260508121559 50 115 0.9 2.6 0.00 0.06 0.00 87 1018.0
20260508121058 50 0 0.9 2.6 0.00 0.06 0.00 88 1018.0
20260508120558 50 153 0.9 2.6 0.00 0.06 0.00 88 1018.0
20260508120112 50 187 0.9 2.6 0.00 0.06 0.00 88 1017.9
20260508115602 50 187 0.9 2.6 0.00 0.06 0.00 88 1017.7
20260508115059 51 188 0.0 1.7 0.00 0.06 0.00 89 1017.7
20260508114603 51 0 0.0 0.0 0.00 0.06 0.00 90 1017.6
20260508114059 51 0 0.0 0.0 0.00 0.06 0.00 90 1017.5
20260508113555 50 0 0.0 0.0 0.00 0.06 0.00 91 1017.4
20260508113102 50 0 0.0 0.0 0.00 0.06 0.00 92 1017.4
20260508112559 49 0 0.0 0.0 0.00 0.06 0.00 92 1017.3
20260508112058 49 0 0.0 0.0 0.00 0.06 0.00 90 1017.2
20260508111556 49 0 0.0 0.0 0.00 0.06 0.00 90 1017.3
20260508111058 49 0 0.0 0.0 0.00 0.06 0.00 89 1017.0
20260508110558 49 0 0.0 0.0 0.00 0.06 0.00 90 1017.0
20260508110105 49 0 0.0 0.0 0.00 0.06 0.00 90 1016.8
20260508105557 49 0 0.0 0.0 0.00 0.07 0.00 90 1016.8
20260508105057 49 0 0.0 0.0 0.00 0.07 0.00 90 1016.9
20260508104559 49 0 0.0 0.0 0.00 0.07 0.00 89 1016.8
20260508104059 49 0 0.0 0.0 0.00 0.07 0.00 89 1016.8
20260508103559 49 0 0.0 0.0 0.00 0.07 0.00 89 1016.6
20260508103059 49 0 0.0 0.0 0.00 0.07 0.00 89 1016.6
20260508102558 49 0 0.0 0.0 0.00 0.07 0.00 90 1016.7
20260508102100 49 0 0.0 0.0 0.00 0.07 0.00 89 1016.6
20260508101557 49 0 0.0 0.0 0.00 0.07 0.00 89 1016.6
20260508101059 50 0 0.0 0.0 0.00 0.07 0.00 89 1016.5
20260508100600 50 0 0.0 0.0 0.00 0.07 0.00 88 1016.5
20260508100129 50 0 0.0 0.0 0.00 0.07 0.00 88 1016.4
20260508095558 50 0 0.0 0.0 0.00 0.08 0.00 87 1016.4
20260508095057 51 0 0.0 1.7 0.00 0.08 0.00 87 1016.3
20260508094557 51 0 0.0 2.6 0.00 0.08 0.00 88 1016.4
20260508094059 51 188 0.9 2.6 0.00 0.08 0.00 88 1016.3
20260508093558 51 188 0.9 2.6 0.00 0.08 0.00 88 1016.3
20260508093057 51 188 0.0 1.7 0.00 0.08 0.00 87 1016.2
20260508092557 51 0 0.0 1.7 0.00 0.08 0.00 86 1016.3
20260508092059 51 0 0.0 3.5 0.00 0.08 0.00 86 1016.1
20260508091610 52 0 0.0 3.5 0.00 0.08 0.00 85 1016.2
20260508091059 51 188 1.7 3.5 0.00 0.08 0.00 84 1016.0
20260508090600 51 177 0.0 0.0 0.00 0.08 0.00 79 1016.3
20260508090059 51 0 0.0 0.0 0.00 0.08 0.00 73 1016.2
20260508085558 51 0 0.0 0.0 0.00 0.11 0.00 72 1016.2
20260508085057 51 0 0.0 0.0 0.00 0.11 0.00 72 1016.2
20260508084558 51 0 0.0 0.0 0.00 0.11 0.00 71 1016.2
20260508084057 51 0 0.0 0.9 0.00 0.11 0.00 71 1016.2
20260508083557 51 0 0.0 0.9 0.00 0.11 0.00 71 1016.2
20260508083058 52 0 0.0 0.9 0.00 0.11 0.00 70 1016.2
20260508082557 52 0 0.0 0.9 0.00 0.11 0.00 70 1016.3
20260508082059 51 0 0.0 0.9 0.00 0.11 0.00 72 1016.0
20260508081614 51 0 0.0 0.9 0.00 0.11 0.00 74 1016.1
20260508081057 52 0 0.0 0.9 0.00 0.11 0.00 78 1016.1
20260508080557 52 0 0.0 0.0 0.00 0.11 0.00 81 1016.0
20260508080101 52 0 0.0 0.0 0.00 0.11 0.00 82 1016.1
20260508075559 52 0 0.0 0.0 0.00 0.11 0.00 82 1016.1
20260508075059 52 0 0.0 0.9 0.00 0.11 0.00 80 1016.4
20260508074607 52 0 0.0 0.9 0.00 0.11 0.00 80 1016.4
20260508074057 52 0 0.0 0.0 0.00 0.11 0.00 81 1016.3
20260508073557 52 0 0.0 0.0 0.00 0.11 0.00 80 1016.4
20260508073057 52 0 0.0 0.0 0.00 0.11 0.00 79 1016.4
20260508072557 52 0 0.0 0.0 0.00 0.11 0.00 74 1016.4
20260508072101 52 0 0.0 0.0 0.00 0.11 0.00 73 1016.3
20260508071558 52 0 0.0 0.0 0.00 0.11 0.00 73 1016.3
20260508071056 52 0 0.0 0.0 0.00 0.11 0.00 73 1016.3
20260508070557 52 0 0.0 0.0 0.00 0.11 0.00 72 1016.4
20260508070058 52 0 0.0 0.0 0.00 0.11 0.00 72 1016.4
20260508065556 52 0 0.0 1.7 0.00 0.11 0.00 72 1016.3
20260508065057 52 0 0.0 1.7 0.00 0.11 0.00 72 1016.3
20260508064611 52 0 0.0 1.7 0.00 0.11 0.00 72 1016.3
20260508064056 52 311 0.9 1.7 0.00 0.11 0.00 73 1016.3
20260508063557 52 310 0.0 1.7 0.00 0.11 0.00 73 1016.3
20260508063101 52 311 0.9 1.7 0.00 0.11 0.00 73 1016.3
20260508062557 52 311 0.0 2.6 0.00 0.11 0.00 73 1016.4
20260508062057 52 311 0.0 2.6 0.00 0.11 0.00 73 1016.2
20260508061605 52 250 0.9 2.6 0.00 0.11 0.00 74 1016.3
20260508061057 52 250 0.9 2.6 0.00 0.11 0.00 74 1016.2
20260508060558 52 250 0.9 1.7 0.00 0.11 0.00 75 1016.2
20260508060120 52 250 0.0 1.7 0.00 0.11 0.00 74 1016.3
20260508055557 51 250 0.0 1.7 0.00 0.18 0.00 75 1016.4
20260508055056 51 0 0.0 1.7 0.00 0.18 0.00 76 1016.4
20260508054640 51 0 0.0 0.9 0.00 0.18 0.00 77 1016.3
20260508054059 51 0 0.0 0.0 0.00 0.18 0.00 77 1016.5
20260508053559 51 0 0.0 0.0 0.00 0.18 0.00 78 1016.4
20260508053058 51 0 0.0 0.0 0.00 0.18 0.00 78 1016.5
20260508052559 51 0 0.0 0.0 0.00 0.18 0.00 79 1016.6
20260508052059 51 0 0.0 0.0 0.00 0.18 0.00 79 1016.6
20260508051559 51 0 0.0 0.0 0.00 0.18 0.00 78 1016.6
20260508051058 51 0 0.0 0.0 0.00 0.18 0.00 78 1016.5
20260508050559 52 0 0.0 0.0 0.00 0.18 0.00 77 1016.3
20260508050059 52 0 0.0 0.0 0.00 0.18 0.00 78 1016.3
20260508045558 52 0 0.0 0.0 0.00 0.18 0.00 78 1016.2
20260508045058 52 0 0.0 0.0 0.00 0.18 0.00 79 1016.2
20260508044556 52 0 0.0 0.0 0.00 0.18 0.00 79 1016.2
20260508044059 52 0 0.0 0.0 0.00 0.18 0.00 79 1016.2
20260508043556 52 0 0.0 0.9 0.00 0.18 0.00 80 1016.1
20260508043100 52 0 0.0 0.9 0.00 0.18 0.00 81 1016.0
20260508042556 52 0 0.0 0.9 0.00 0.18 0.00 81 1016.0
20260508042101 52 250 0.0 0.9 0.00 0.18 0.00 81 1016.0
20260508041600 52 0 0.0 0.9 0.00 0.18 0.00 82 1015.9
20260508041057 52 0 0.0 1.7 0.00 0.18 0.00 83 1016.0
20260508040557 52 0 0.0 1.7 0.00 0.18 0.00 84 1015.9
20260508040058 52 0 0.0 1.7 0.00 0.18 0.00 84 1015.9
20260508035557 51 0 0.0 0.9 0.00 0.20 0.18 84 1015.7
20260508035057 51 0 0.0 0.9 0.00 0.20 0.18 84 1015.7
20260508034556 51 0 0.0 0.9 0.00 0.20 0.18 84 1015.7
20260508034054 51 0 0.0 0.9 0.00 0.20 0.18 85 1015.7
20260508033557 51 250 0.0 0.9 0.00 0.20 0.18 85 1015.7
20260508033058 51 0 0.0 0.0 0.00 0.20 0.18 86 1015.6
20260508032558 51 0 0.0 0.9 0.00 0.20 0.18 87 1015.7
20260508032058 51 0 0.0 0.9 0.00 0.20 0.18 87 1015.7
20260508031601 51 0 0.0 0.9 0.00 0.20 0.18 87 1015.7
20260508031058 51 0 0.0 0.9 0.00 0.20 0.18 88 1015.7
20260508030559 51 0 0.0 0.9 0.00 0.20 0.18 89 1015.6
20260508030108 52 0 0.0 0.0 0.00 0.20 0.18 89 1015.6
20260508025558 52 0 0.0 0.0 0.00 0.21 0.18 90 1015.8
20260508025059 53 0 0.0 0.0 0.00 0.21 0.18 90 1015.7